{"data":{"norad_id":46461,"intl_designator":"2020-065H","name":"JILIN-1 GAOFEN 3I","alt_names":[],"object_type":"PAYLOAD","status":"ACTIVE","operator":null,"country":"PRC","launch_date":"2020-09-15","launch_site_code":"SEAL","launch_vehicle":null,"mission":null,"orbit_class":"UNKNOWN","rcs_meters":null,"size_class":null,"mass_kg":null,"dimensions":null,"purposes":[],"wikipedia_slug":null,"has_3d_model":false,"image_url":null,"decayed_at":null,"tle_current":{"epoch":"2026-06-08T02:43:13.416672Z","epoch_age_seconds":9092757,"freshness":"OLD","line1":"1 46461U 20065H   26159.11334973  .02985542  23538-5  92949-3 0  9995","line2":"2 46461  97.1997 221.1449 0009502 252.4087 107.6168 16.26513082318928","mean_motion":16.26513082,"eccentricity":0.0009502,"inclination_deg":97.1997,"raan_deg":221.1449,"arg_perigee_deg":252.4087,"mean_anomaly_deg":107.6168,"bstar":0.00092949,"rev_number":31892,"period_min":88.532949161979,"perigee_km":195.67487276705,"apogee_km":208.17962686741,"semimajor_km":6580.0642498172,"source":"CELESTRAK","updated_at":"2026-06-09T09:00:22.431716Z"}}}